sat.trackr.live / text

‹ back to catalog

CUBY-5

NORAD 69907 · 2026-156AQ

PAYLOAD ACTIVE UNKNOWN

§ Identity

Operator
Country
GER
Launch date
2026-07-07
Launch site
AFWTR
Launch vehicle
Mass (kg)
RCS (m²)

External: N2YO · Heavens-Above · Gunter

§ Orbital elements

Epoch: 2026-09-19T23:17:00.199680Z

Period
96.58 min
Inclination
97.7416°
Eccentricity
0.0002269
Mean motion
14.91027581 rev/d
Perigee alt
593.1 km
Apogee alt
596.3 km
Semi-major
6,972.9 km
B*
8.5627e-5
RAAN
162.0476°
Arg perigee
223.4857°
Mean anomaly
136.6183°
Rev number
1,112

§ Raw data

CUBY-51 69907U 26156AQ  26262.97014120  .00000792  00000+0  85627-4 0  99922 69907  97.7416 162.0476 0002269 223.4857 136.6183 14.91027581 11124

JSON: /api/v1/satellites/69907 · /tle

For live sub-satellite position, see the globe view (requires WebGL).

§ Visibility from observer

Set your observer location to see the next 7 days of passes ≥ 10°. The values pass through the URL so the page stays shareable.

No JS? Fill the form by hand. The geolocation button needs JavaScript.